Weather History for CWEL - November, 2012

Change the Weather History Date:

Thursday, November 29, 2012

  Actual Average Record
Temperature  
Mean Temperature 46 °F -  
Max Temperature 51 °F - - ()
Min Temperature 41 °F - - ()
Degree Days  
Heating Degree Days 19    
Moisture  
Dew Point -    
Average Humidity    
Maximum Humidity    
Minimum Humidity    
Precipitation  
Precipitation 0.08 in - - ()
Sea Level Pressure  
Sea Level Pressure 29.47 in    
Wind  
Wind Speed 18 mph ()    
Max Wind Speed 26 mph    
Max Gust Speed -    
T = Trace of Precipitation, MM = Missing Value Source: Averaged Metar Reports

Daily Weather History Graph

Daily Weather History Graph

Search for Another Location

Airport or City:

Trip Planner

Search our weather history database for the weather conditions in past years. The results will help you decide how hot, cold, wet, or windy it might be!

Date:

Astronomy

Nov. 29, 2012 Rise Set
Actual Time 7:46 AM PST 4:20 PM PST
Civil Twilight 7:10 AM PST 4:56 PM PST
Nautical Twilight 6:30 AM PST 5:36 PM PST
Astronomical Twilight 5:52 AM PST 6:14 PM PST
Moon 5:27 PM PST (11/29) 8:38 AM PST (11/29)
Length of Visible Light 9h 46m
Length of Day
8h 33m
Full, 99% of the Moon is Illuminated
Nov 29
Full
Dec 6
Last Quarter
Dec 13
New
Dec 19
First Quarter
Dec 28
Full

Hourly Weather History & Observations

Time (PST) Temp. Dew Point Humidity Pressure Visibility Wind Dir Wind Speed Gust Speed Precip Events Conditions
12:00 AM 47.1 °F - N/A% 29.60 in - SE 19.6 mph - N/A   Unknown
1:00 AM 46.6 °F - N/A% 29.60 in - SE 18.4 mph - N/A   Unknown
2:00 AM 47.7 °F - N/A% 29.57 in - ESE 24.2 mph - N/A   Unknown
3:00 AM 47.5 °F - N/A% 29.56 in - SE 20.7 mph - 0.01 in   Unknown
4:00 AM 48 °F - % 29.52 in - SE 23.0 mph - -  
4:00 AM 48.0 °F - N/A% 29.52 in - SE 23.0 mph - N/A   Unknown
5:00 AM 48.4 °F - N/A% 29.49 in - SE 24.2 mph - 0.01 in   Unknown
6:00 AM 48.4 °F - N/A% 29.46 in - SSE 19.6 mph - N/A   Unknown
7:00 AM 49.3 °F - N/A% 29.43 in - SE 21.9 mph - 0.01 in   Unknown
8:00 AM 48.9 °F - N/A% 29.41 in - SSE 19.6 mph - 0.03 in   Unknown
9:00 AM 48.2 °F - N/A% 29.44 in - SSE 17.3 mph - 0.02 in   Unknown
10:00 AM 49 °F - % 29.44 in - SE 19.6 mph - -  
10:00 AM 49.1 °F - N/A% 29.44 in - SE 19.6 mph - 0.01 in   Unknown
11:00 AM 50.2 °F - N/A% 29.46 in - SSE 19.6 mph - 0.01 in   Unknown
12:00 PM 49.5 °F - N/A% 29.47 in - SE 16.1 mph - 0.01 in   Unknown
1:00 PM 50.4 °F - N/A% 29.48 in - SE 17.3 mph - N/A   Unknown
2:00 PM 50.4 °F - N/A% 29.48 in - SE 19.6 mph - N/A   Unknown
3:00 PM 49.8 °F - N/A% 29.47 in - SE 26.5 mph - N/A   Unknown
4:00 PM 49 °F - % 29.47 in - SE 18.4 mph - -  
4:00 PM 49.3 °F - N/A% 29.47 in - SE 18.4 mph - 0.02 in   Unknown
5:00 PM 48.6 °F - N/A% 29.45 in - SE 21.9 mph - N/A   Unknown
6:00 PM 48.9 °F - N/A% 29.44 in - ESE 21.9 mph - N/A   Unknown
7:00 PM 48.7 °F - N/A% 29.43 in - SE 19.6 mph - 0.01 in   Unknown
8:00 PM 49.1 °F - N/A% 29.40 in - ESE 21.9 mph - N/A   Unknown
9:00 PM 49.1 °F - N/A% 29.40 in - SE 20.7 mph - N/A   Unknown
10:00 PM 49 °F - % 29.40 in - SE 20.7 mph - -  
10:00 PM 48.6 °F - N/A% 29.40 in - SE 20.7 mph - N/A   Unknown
11:00 PM 49.1 °F - N/A% 29.38 in - SE 23.0 mph - 0.02 in   Unknown